Sarasota, FL

1:23 AM EDT on April 27, 2017 (GMT -0400)
Sarasota-bradenton

Weather History for KSRQ - January, 2011

Change the Weather History Date:

Sunday, January 9, 2011

  Actual Average Record
Temperature  
Mean Temperature 57 °F 61 °F  
Max Temperature 69 °F 71 °F 87 °F (2013)
Min Temperature 44 °F 52 °F 28 °F (1996)
Degree Days  
Heating Degree Days 8 6  
Month to date heating degree days 37 52  
Since 1 July heating degree days 433 207  
Cooling Degree Days 0 2  
Month to date cooling degree days 2 18  
Year to date cooling degree days 2 18  
Growing Degree Days 6 (Base 50)    
Moisture  
Dew Point 41 °F    
Average Humidity 64    
Maximum Humidity 100    
Minimum Humidity 27    
Precipitation  
Precipitation 0.00 in 0.10 in 2.22 in (1953)
Month to date precipitation 0.48 1.09  
Year to date precipitation 0.48 1.09  
Sea Level Pressure  
Sea Level Pressure 30.03 in    
Wind  
Wind Speed 8 mph (ENE)    
Max Wind Speed 17 mph    
Max Gust Speed 30 mph    
Visibility 10 miles    
Events      
T = Trace of Precipitation, MM = Missing Value Source: NWS Daily Summary

Daily Weather History Graph

Daily Weather History Graph

Search for Another Location

Airport or City:

Trip Planner

Search our weather history database for the weather conditions in past years. The results will help you decide how hot, cold, wet, or windy it might be!

Date:

Astronomy

Jan. 09, 2011 Rise Set
Actual Time 7:21 AM EST 5:53 PM EST
Civil Twilight 6:56 AM EST 6:18 PM EST
Nautical Twilight 6:27 AM EST 6:47 PM EST
Astronomical Twilight 5:59 AM EST 7:15 PM EST
Moon 10:23 AM EST (1/9) 10:48 PM EST (1/9)
Length of Visible Light 11h 22m
Length of Day
10h 31m
Waxing Crescent, 25% of the Moon is Illuminated
Jan 9
Waxing Crescent
Jan 12
First Quarter
Jan 19
Full
Jan 26
Last Quarter
Feb 2
New

Hourly Weather History & Observations

Time (EST) Temp. Windchill Dew Point Humidity Pressure Visibility Wind Dir Wind Speed Gust Speed Precip Events Conditions
12:53 AM 46.9 °F - 45.0 °F 93% 29.94 in 10.0 mi Calm Calm - N/A   Clear
1:53 AM 48.9 °F - 46.9 °F 93% 29.95 in 10.0 mi NE 4.6 mph - N/A   Clear
2:53 AM 48.9 °F - 46.0 °F 90% 29.97 in 10.0 mi NNE 4.6 mph - N/A   Partly Cloudy
3:53 AM 46.9 °F - 46.0 °F 97% 29.99 in 10.0 mi NE 3.5 mph - N/A   Clear
4:53 AM 46.0 °F 43.1 °F 45.0 °F 96% 29.99 in 10.0 mi East 5.8 mph - N/A   Clear
5:53 AM 46.0 °F 43.9 °F 44.1 °F 93% 30.00 in 10.0 mi ENE 4.6 mph - N/A   Clear
6:53 AM 46.0 °F 44.8 °F 43.0 °F 89% 30.02 in 10.0 mi NE 3.5 mph - N/A   Clear
7:53 AM 45.0 °F 41.8 °F 41.0 °F 86% 30.04 in 10.0 mi ENE 5.8 mph - N/A   Clear
8:53 AM 48.9 °F - 39.9 °F 71% 30.04 in 10.0 mi ENE 10.4 mph - N/A   Clear
9:53 AM 53.1 °F - 37.0 °F 55% 30.07 in 10.0 mi East 12.7 mph - N/A   Clear
10:53 AM 59.0 °F - 33.1 °F 38% 30.07 in 10.0 mi ENE 11.5 mph - N/A   Clear
11:53 AM 62.1 °F - 28.9 °F 29% 30.06 in 10.0 mi ENE 13.8 mph - N/A   Clear
12:53 PM 64.9 °F - 33.1 °F 31% 30.03 in 10.0 mi East 11.5 mph - N/A   Clear
1:53 PM 66.9 °F - 37.0 °F 33% 30.02 in 10.0 mi East 10.4 mph - N/A   Clear
2:53 PM 68.0 °F - 37.9 °F 33% 30.01 in 10.0 mi East 10.4 mph - N/A   Clear
3:53 PM 68.0 °F - 37.0 °F 32% 30.02 in 10.0 mi East 11.5 mph - N/A   Clear
4:53 PM 66.9 °F - 37.0 °F 33% 30.02 in 10.0 mi East 9.2 mph - N/A   Clear
5:53 PM 61.0 °F - 39.0 °F 44% 30.03 in 10.0 mi East 6.9 mph - N/A   Clear
6:53 PM 57.0 °F - 39.0 °F 51% 30.04 in 10.0 mi East 6.9 mph - N/A   Clear
7:53 PM 57.0 °F - 41.0 °F 55% 30.05 in 10.0 mi East 8.1 mph - N/A   Clear
8:53 PM 59.0 °F - 48.0 °F 67% 30.07 in 10.0 mi East 10.4 mph - N/A   Scattered Clouds
9:53 PM 57.9 °F - 48.9 °F 72% 30.08 in 10.0 mi East 10.4 mph - N/A   Overcast
10:53 PM 55.9 °F - 48.0 °F 75% 30.06 in 10.0 mi East 12.7 mph - N/A   Partly Cloudy
11:53 PM 55.0 °F - 48.0 °F 77% 30.04 in 10.0 mi East 11.5 mph - N/A   Partly Cloudy